Location: Blangy-Tronville
(49.8790°N, 2.4226°E)
Time: 07:13:12
(UTC+00:00)

SL-16 R/B - Pass Details

Date: 18 November 2025
Orbit: 985 x 1006 km, 99.8° (Epoch: 06 December)

Event Time Altitude Azimuth Distance (km) Brightness Sun altitude
Rises 16:44:02 0° 16° (NNE) 3,748 5.2 -6.8°
Reaches altitude 10° 16:46:31 10° 16° (NNE) 2,793 4.5 -7.2°
Maximum altitude 16:52:50 90° 286° (WNW) 1,012 2.6 -8.1°
Drops below altitude 10° 16:59:05 10° 199° (SSW) 2,766 5.4 -9.1°
Sets 17:01:32 0° 199° (SSW) 3,709 6.1 -9.4°
